Volver al catálogo

KYOKKO 1 DEB

ActivoUNKNOWN
NORAD 12329·DEBRIS·🇯🇵 Japan

Lanzado Feb 4, 1978 desde Uchinoura Space Center

Loading…

Próximos Pases (próximas 24 horas)

TLE

ActualizadoSource: Space-Track

Época: Sep 11, 2026, 10:47 UTC

1 12329U 78014C   26254.44999410  .00000078  00000-0  13989-3 0  9994
2 12329  65.2645 283.4440 1882376 188.7207 167.6094 10.80538179896930

Sigue KYOKKO 1 DEB en tiempo real con AllMySat

Download on the App Store